Location: Banff
(51.1667°N, 115.5667°W)
Time: 13:02:51
(UTC+00:00)

Vanguard 1 Rocket - Pass Details

Date: 04 December 2020
Orbit: 655 x 4222 km, 34.3° (Epoch: 23 January)

Event Time Altitude Azimuth Distance (km) Brightness Sun altitude
Rises 06:02:35 0° 204° (SSW) 7,464 11.9 -56.3°
Enters shadow 06:04:21 - 202° (SSW) 7,256 11.8 -56.4°
Reaches altitude 10° 06:08:15 10° 195° (SSW) 6,831 - -56.8°
Maximum altitude 06:27:36 32° 143° (SE) 5,764 - -58.5°
Drops below altitude 10° 06:46:43 10° 92° (E) 6,836 - -59.8°
Exits shadow 06:46:59 10° 92° (E) 6,865 11.7 -59.8°
Sets 06:52:15 0° 84° (E) 7,480 12.0 -60.1°
